"Pseudo-MPEC" for p0008N

Created 2025 Jul 7 20:35:12 UT using Find_Orb

Click here for an explanation of pseudo-MPECs

 
 Astrometry: 
     p0008N * C2025 06 20.45355418 57 06.945+43 50 12.85   ~6KN5 22.02wXNEOCPF52
     p0008N   C2025 06 20.48071718 57 06.940+43 50 15.00   ~6KN5 21.8 wXNEOCPF52
     p0008N   C2025 06 20.49435618 57 06.930+43 50 15.93   ~6KN5 21.87wXNEOCPF52

Station data:
(F52) Pan-STARRS 2, Haleakala  (N20.707382 W156.255910)  US/Hawaii.
   Observers J. Bulger, T. Dukes, T. Lowe, A. Schultz, M. Willman. Measurers
   K. Chambers, S. Chastel, T. de Boer, L. Denneau, J. Fairlamb, H.
   Flewelling, M. Huber, C.-C. Lin, E. Magnier, Y. Ramanjooloo, R. Wainscoat,
   R. Weryk. 1.8-m Ritchey-Chrétien + CCD.

Orbital elements:  p0008N
   Perihelion 2025 May 11.45635 +/- 41.2 TT = 10:57:09 (JD 2460806.95635)
Epoch 2025 Jun 20.0 TT = JDT 2460846.5   Earth MOID: 0.3568      AutoNEOCP
M  10.71347354 +/- 17               (J2000 ecliptic)
n   0.27092781 +/- 0.264            Peri.   48.00667 +/- 80
a   2.36537675 +/- 1.54             Node   194.91894 +/- 41
e   0.4604858 +/- 0.277             Incl.   23.66268 +/- 10
P   3.63790                H 20.59  G  0.15   U 11.8  SR
q 1.27615433 +/- 0.334    Q 3.45459916 +/- 91.4
From 3 observations 2025 June 20 (58.8 min); mean residual 0".03
Residuals in arcseconds: 
250620 F52  .03+  .00     250620 F52  .06+  .01+    250620 F52  .01-  .01-    

Ephemerides (geocentric):
Date (UTC) HH   RA             Dec           delta  r     elong  mag " sig PA
---- --------  ------------   ------------  ------ ------ -----  --- --------
2025 07 07 21  18 57 21.414   +42 02 50.22  .62446 1.4028 115.4 21.9  41d  59
2025 07 07 22  18 57 21.360   +42 02 17.11  .62457 1.4029 115.4 21.9  41d  59
2025 07 07 23  18 57 21.306   +42 01 43.92  .62468 1.4031 115.4 21.9  41d  59
2025 07 08 00  18 57 21.253   +42 01 10.65  .62478 1.4033 115.4 21.9  41d  59
2025 07 08 01  18 57 21.200   +42 00 37.30  .62489 1.4035 115.4 21.9  42d  59
2025 07 08 02  18 57 21.147   +42 00 03.87  .62500 1.4036 115.4 21.9  42d  60
2025 07 08 03  18 57 21.095   +41 59 30.36  .62511 1.4038 115.5 21.9  42d  60
2025 07 08 04  18 57 21.044   +41 58 56.77  .62522 1.4040 115.5 21.9  42d  60
2025 07 08 05  18 57 20.993   +41 58 23.10  .62533 1.4041 115.5 21.9  42d  60
2025 07 08 06  18 57 20.942   +41 57 49.36  .62544 1.4043 115.5 21.9  42d  60
2025 07 08 07  18 57 20.893   +41 57 15.53  .62555 1.4045 115.5 21.9  42d  60
2025 07 08 08  18 57 20.843   +41 56 41.63  .62566 1.4046 115.5 21.9  42d  60
2025 07 08 09  18 57 20.794   +41 56 07.64  .62577 1.4048 115.5 21.9  42d  60
2025 07 08 10  18 57 20.746   +41 55 33.58  .62588 1.4050 115.5 21.9  42d  60
2025 07 08 11  18 57 20.698   +41 54 59.44  .62598 1.4052 115.6 21.9  42d  60
2025 07 08 12  18 57 20.651   +41 54 25.22  .62609 1.4053 115.6 21.9  42d  60
2025 07 08 13  18 57 20.604   +41 53 50.92  .62620 1.4055 115.6 21.9  42d  60
2025 07 08 14  18 57 20.558   +41 53 16.54  .62631 1.4057 115.6 21.9  42d  59
2025 07 08 15  18 57 20.512   +41 52 42.08  .62642 1.4058 115.6 21.9  42d  59
2025 07 08 16  18 57 20.467   +41 52 07.55  .62653 1.4060 115.6 21.9  42d  59
2025 07 08 17  18 57 20.422   +41 51 32.93  .62664 1.4062 115.6 21.9  42d  59
2025 07 08 18  18 57 20.378   +41 50 58.24  .62675 1.4064 115.6 21.9  42d  59
2025 07 08 19  18 57 20.335   +41 50 23.47  .62686 1.4065 115.7 21.9  42d  59
2025 07 08 20  18 57 20.292   +41 49 48.61  .62697 1.4067 115.7 21.9  42d  59
2025 07 08 21  18 57 20.250   +41 49 13.69  .62708 1.4069 115.7 21.9  42d  59
2025 07 08 22  18 57 20.208   +41 48 38.68  .62719 1.4070 115.7 21.9  43d  59
2025 07 08 23  18 57 20.167   +41 48 03.59  .62730 1.4072 115.7 21.9  43d  58
2025 07 09 00  18 57 20.127   +41 47 28.43  .62741 1.4074 115.7 21.9  43d  58
2025 07 09 01  18 57 20.087   +41 46 53.18  .62752 1.4076 115.7 21.9  43d  58
2025 07 09 02  18 57 20.048   +41 46 17.86  .62763 1.4077 115.7 21.9  43d  58
2025 07 09 03  18 57 20.009   +41 45 42.46  .62774 1.4079 115.8 21.9  43d  58
2025 07 09 04  18 57 19.971   +41 45 06.98  .62785 1.4081 115.8 21.9  43d  58
2025 07 09 05  18 57 19.934   +41 44 31.42  .62796 1.4082 115.8 21.9  43d  58
2025 07 09 06  18 57 19.897   +41 43 55.79  .62807 1.4084 115.8 21.9  44d  58
2025 07 09 07  18 57 19.861   +41 43 20.08  .62818 1.4086 115.8 21.9  44d  58
2025 07 09 08  18 57 19.825   +41 42 44.29  .62829 1.4088 115.8 21.9  44d  58
2025 07 09 09  18 57 19.791   +41 42 08.42  .62840 1.4089 115.8 21.9  44d  58
2025 07 09 10  18 57 19.757   +41 41 32.47  .62851 1.4091 115.8 21.9  44d  58
2025 07 09 11  18 57 19.723   +41 40 56.44  .62862 1.4093 115.9 21.9  44d  58
2025 07 09 12  18 57 19.690   +41 40 20.34  .62873 1.4094 115.9 21.9  44d  58
2025 07 09 13  18 57 19.658   +41 39 44.16  .62884 1.4096 115.9 21.9  45d  58
2025 07 09 14  18 57 19.627   +41 39 07.90  .62895 1.4098 115.9 21.9  45d  58
2025 07 09 15  18 57 19.596   +41 38 31.56  .62906 1.4100 115.9 21.9  45d  58
2025 07 09 16  18 57 19.566   +41 37 55.15  .62917 1.4101 115.9 21.9  45d  58
2025 07 09 17  18 57 19.536   +41 37 18.66  .62928 1.4103 115.9 21.9  45d  58
2025 07 09 18  18 57 19.507   +41 36 42.09  .62939 1.4105 115.9 21.9  45d  58
2025 07 09 19  18 57 19.479   +41 36 05.44  .62950 1.4107 116.0 21.9  45d  58
2025 07 09 20  18 57 19.452   +41 35 28.71  .62961 1.4108 116.0 21.9  45d  58